Appleton, MN

7:53 AM CDT on September 25, 2016 (GMT -0500)
Appleton Municipal

Weather History for KAQP - March, 2014

Change the Weather History Date:

Thursday, March 27, 2014

  Actual Average Record
Temperature  
Mean Temperature 36 °F -  
Max Temperature 46 °F 41 °F 60 °F (2004)
Min Temperature 24 °F 23 °F 0 °F (2001)
Degree Days  
Heating Degree Days 29    
Moisture  
Dew Point 31 °F    
Average Humidity 83    
Maximum Humidity 93    
Minimum Humidity 70    
Precipitation  
Precipitation 0.08 in - - ()
Sea Level Pressure  
Sea Level Pressure 29.55 in    
Wind  
Wind Speed 12 mph (North)    
Max Wind Speed 28 mph    
Max Gust Speed 33 mph    
Visibility 7 miles    
Events Rain , Snow    
Averages and records for this station are not official NWS values.
T = Trace of Precipitation, MM = Missing Value Source: NWS Daily Summary

Daily Weather History Graph

Daily Weather History Graph

Search for Another Location

Airport or City:

Trip Planner

Search our weather history database for the weather conditions in past years. The results will help you decide how hot, cold, wet, or windy it might be!

Date:

Astronomy

Mar. 27, 2014 Rise Set
Actual Time 7:13 AM CDT 7:45 PM CDT
Civil Twilight 6:44 AM CDT 8:15 PM CDT
Nautical Twilight 6:09 AM CDT 8:50 PM CDT
Astronomical Twilight 5:33 AM CDT 9:26 PM CDT
Moon 5:14 AM CDT (3/27) 4:26 PM CDT (3/27)
Length of Visible Light 13h 31m
Length of Day
12h 31m
Waning Crescent, 13% of the Moon is Illuminated
Mar 27
Waning Crescent
Mar 30
New
Apr 7
First Quarter
Apr 15
Full
Apr 22
Last Quarter

Hourly Weather History & Observations

Time (CDT) Temp. Windchill Dew Point Humidity Pressure Visibility Wind Dir Wind Speed Gust Speed Precip Events Conditions
12:14 AM 39.2 °F 35.9 °F 33.8 °F 81% 29.41 in 10.0 mi SSE 4.6 mph - N/A   Mostly Cloudy
12:34 AM 44.6 °F 41.4 °F 37.4 °F 76% 29.41 in 10.0 mi SE 5.8 mph - N/A   Overcast
12:53 AM 42.8 °F 38.6 °F 37.4 °F 81% 29.42 in 10.0 mi SE 6.9 mph - N/A   Overcast
1:13 AM 41.0 °F 38.0 °F 35.6 °F 81% 29.41 in 10.0 mi ESE 4.6 mph - N/A   Overcast
1:33 AM 42.8 °F 38.6 °F 37.4 °F 81% 29.41 in 10.0 mi South 6.9 mph - N/A   Overcast
1:53 AM 46.4 °F 42.4 °F 39.2 °F 76% 29.41 in 10.0 mi South 8.1 mph - N/A   Overcast
2:13 AM 46.4 °F 43.5 °F 39.2 °F 76% 29.40 in 10.0 mi South 5.8 mph - N/A   Overcast
2:34 AM 44.6 °F 41.4 °F 39.2 °F 81% 29.41 in 10.0 mi SSE 5.8 mph - N/A   Overcast
2:53 AM 44.6 °F 41.4 °F 39.2 °F 81% 29.41 in 10.0 mi SSE 5.8 mph - N/A   Overcast
3:13 AM 44.6 °F 42.2 °F 39.2 °F 81% 29.41 in 10.0 mi SSE 4.6 mph - N/A   Overcast
3:33 AM 44.6 °F 42.2 °F 39.2 °F 81% 29.41 in 10.0 mi SSE 4.6 mph - N/A   Overcast
3:54 AM 44.6 °F 41.4 °F 39.2 °F 81% 29.40 in 10.0 mi SE 5.8 mph - N/A   Overcast
4:13 AM 44.6 °F 41.4 °F 39.2 °F 81% 29.40 in 10.0 mi SE 5.8 mph - N/A   Overcast
4:33 AM 44.6 °F 42.2 °F 39.2 °F 81% 29.40 in 10.0 mi SE 4.6 mph - N/A   Overcast
4:53 AM 42.8 °F 40.1 °F 37.4 °F 81% 29.40 in 10.0 mi SE 4.6 mph - N/A   Overcast
5:13 AM 44.6 °F 42.2 °F 39.2 °F 81% 29.40 in 10.0 mi SE 4.6 mph - N/A   Overcast
5:34 AM 42.8 °F 39.3 °F 39.2 °F 87% 29.41 in 10.0 mi ESE 5.8 mph - N/A   Overcast
5:53 AM 42.8 °F 40.1 °F 39.2 °F 87% 29.41 in 7.0 mi SE 4.6 mph - N/A   Overcast
6:13 AM 42.8 °F 40.1 °F 39.2 °F 87% 29.41 in 4.0 mi SE 4.6 mph - N/A   Overcast
6:33 AM 42.8 °F 40.1 °F 39.2 °F 87% 29.42 in 2.5 mi SE 4.6 mph - N/A   Drizzle
6:53 AM 42.8 °F 40.1 °F 39.2 °F 87% 29.43 in 2.0 mi WNW 4.6 mph - N/A   Drizzle
7:13 AM 39.2 °F 32.5 °F 37.4 °F 93% 29.44 in 1.8 mi NW 10.4 mph - N/A Rain Light Rain
7:33 AM 37.4 °F 30.3 °F 33.8 °F 87% 29.44 in 2.5 mi NNW 10.4 mph - N/A   Light Drizzle
7:53 AM 35.6 °F 28.0 °F 33.8 °F 93% 29.44 in 2.5 mi NNW 10.4 mph - N/A   Light Drizzle
8:13 AM 35.6 °F 26.6 °F 33.8 °F 93% 29.43 in 2.5 mi North 13.8 mph 17.3 mph N/A   Overcast
8:33 AM 35.6 °F 27.1 °F 33.8 °F 93% 29.45 in 2.0 mi NNW 12.7 mph - N/A   Overcast
8:53 AM 33.8 °F 23.5 °F 32.0 °F 93% 29.44 in 1.8 mi North 16.1 mph - N/A   Overcast
9:13 AM 33.8 °F 23.2 °F 32.0 °F 93% 29.44 in 1.8 mi North 17.3 mph 23.0 mph N/A   Overcast
9:33 AM 33.8 °F 22.8 °F 32.0 °F 93% 29.45 in 2.5 mi North 18.4 mph - N/A   Overcast
9:54 AM 33.8 °F 23.2 °F 32.0 °F 93% 29.45 in 3.0 mi North 17.3 mph 26.5 mph N/A   Overcast
10:13 AM 33.8 °F 22.2 °F 32.0 °F 93% 29.46 in 3.0 mi North 20.7 mph 26.5 mph 0.01 in   Overcast
10:34 AM 33.8 °F 22.5 °F 32.0 °F 93% 29.47 in 3.0 mi North 19.6 mph 25.3 mph 0.03 in   Overcast
10:53 AM 33.8 °F 21.9 °F 30.2 °F 87% 29.48 in 2.5 mi North 21.9 mph 28.8 mph 0.05 in   Overcast
11:14 AM 32.0 °F 18.9 °F 30.2 °F 93% 29.49 in 1.5 mi North 24.2 mph 31.1 mph N/A Snow Light Snow
11:33 AM 30.2 °F 15.7 °F 28.4 °F 93% 29.49 in 0.8 mi North 27.6 mph 33.4 mph N/A Snow Light Snow
11:53 AM 30.2 °F 16.2 °F 28.4 °F 93% 29.50 in 0.5 mi North 25.3 mph 31.1 mph N/A Snow Snow
12:13 PM 30.2 °F 16.8 °F 28.4 °F 93% 29.51 in 0.5 mi North 23.0 mph 28.8 mph N/A Snow Snow
12:33 PM 30.2 °F 17.1 °F 28.4 °F 93% 29.51 in 0.5 mi North 21.9 mph - N/A Snow Snow
12:53 PM 30.2 °F 17.4 °F 28.4 °F 93% 29.52 in 1.0 mi North 20.7 mph - N/A Snow Light Snow
1:14 PM 30.2 °F 16.8 °F 28.4 °F 93% 29.52 in 1.0 mi North 23.0 mph - N/A Snow Light Snow
1:33 PM 30.2 °F 17.1 °F 28.4 °F 93% 29.53 in 0.8 mi North 21.9 mph 27.6 mph N/A Snow Light Snow
1:53 PM 30.2 °F 16.5 °F 28.4 °F 93% 29.54 in 0.8 mi North 24.2 mph 28.8 mph N/A Snow Light Snow
2:14 PM 30.2 °F 17.1 °F 28.4 °F 93% 29.55 in 1.0 mi North 21.9 mph 31.1 mph N/A Snow Light Snow
2:33 PM 32.0 °F 19.2 °F 28.4 °F 87% 29.56 in 1.0 mi North 23.0 mph 28.8 mph N/A Snow Light Snow
2:54 PM 32.0 °F 19.2 °F 28.4 °F 87% 29.56 in 0.8 mi North 23.0 mph 32.2 mph N/A Snow Light Snow
3:14 PM 33.8 °F 22.8 °F 28.4 °F 81% 29.57 in 2.0 mi North 18.4 mph - N/A Snow Light Snow
3:33 PM 33.8 °F 22.2 °F 28.4 °F 81% 29.57 in 10.0 mi North 20.7 mph 27.6 mph N/A   Mostly Cloudy
3:54 PM 33.8 °F 21.9 °F 26.6 °F 75% 29.58 in 10.0 mi North 21.9 mph 29.9 mph N/A   Overcast
4:13 PM 35.6 °F 24.0 °F 26.6 °F 70% 29.58 in 10.0 mi North 23.0 mph - N/A   Mostly Cloudy
4:33 PM 35.6 °F 24.0 °F 26.6 °F 70% 29.59 in 10.0 mi North 23.0 mph 28.8 mph N/A   Overcast
4:53 PM 35.6 °F 23.4 °F 26.6 °F 70% 29.60 in 10.0 mi North 25.3 mph 31.1 mph N/A   Mostly Cloudy
5:13 PM 35.6 °F 23.7 °F 26.6 °F 70% 29.61 in 10.0 mi North 24.2 mph 28.8 mph N/A   Overcast
5:34 PM 35.6 °F 23.7 °F 28.4 °F 75% 29.62 in 10.0 mi North 24.2 mph 28.8 mph N/A   Overcast
5:53 PM 35.6 °F 24.0 °F 28.4 °F 75% 29.63 in 10.0 mi North 23.0 mph 28.8 mph 0.02 in   Mostly Cloudy
6:13 PM 35.6 °F 23.7 °F 28.4 °F 75% 29.64 in 10.0 mi North 24.2 mph 28.8 mph 0.01 in   Scattered Clouds
6:33 PM 33.8 °F 21.9 °F 28.4 °F 81% 29.65 in 10.0 mi North 21.9 mph 28.8 mph 0.01 in   Clear
6:53 PM 33.8 °F 22.8 °F 26.6 °F 75% 29.67 in 10.0 mi North 18.4 mph - 0.01 in   Clear
7:13 PM 33.8 °F 22.8 °F 26.6 °F 75% 29.69 in 10.0 mi North 18.4 mph 26.5 mph N/A   Clear
7:33 PM 32.0 °F 21.2 °F 26.6 °F 80% 29.70 in 10.0 mi North 16.1 mph - N/A   Clear
7:53 PM 32.0 °F 20.5 °F 26.6 °F 80% 29.71 in 10.0 mi North 18.4 mph - N/A   Mostly Cloudy
8:13 PM 30.2 °F 18.1 °F 24.8 °F 80% 29.73 in 10.0 mi North 18.4 mph - N/A   Scattered Clouds
8:33 PM 30.2 °F 18.5 °F 24.8 °F 80% 29.74 in 10.0 mi North 17.3 mph - N/A   Scattered Clouds
8:53 PM 30.2 °F 18.5 °F 24.8 °F 80% 29.75 in 10.0 mi North 17.3 mph - N/A   Overcast
9:14 PM 30.2 °F 18.1 °F 24.8 °F 80% 29.77 in 10.0 mi North 18.4 mph 23.0 mph N/A   Overcast
9:33 PM 30.2 °F 17.4 °F 24.8 °F 80% 29.79 in 10.0 mi North 20.7 mph - N/A   Overcast
9:53 PM 30.2 °F 17.8 °F 24.8 °F 80% 29.80 in 10.0 mi North 19.6 mph - N/A   Overcast
10:13 PM 30.2 °F 18.9 °F 24.8 °F 80% 29.82 in 10.0 mi NNW 16.1 mph - N/A   Overcast
10:33 PM 28.4 °F 15.4 °F 23.0 °F 80% 29.83 in 10.0 mi NNW 19.6 mph 25.3 mph N/A   Mostly Cloudy
10:54 PM 28.4 °F 15.1 °F 21.2 °F 74% 29.84 in 10.0 mi NNW 20.7 mph - N/A   Mostly Cloudy
11:13 PM 26.6 °F 13.1 °F 21.2 °F 80% 29.85 in 10.0 mi North 19.6 mph 25.3 mph N/A   Overcast
11:34 PM 26.6 °F 15.2 °F 19.4 °F 74% 29.86 in 10.0 mi NNW 13.8 mph 26.5 mph N/A   Scattered Clouds
11:54 PM 24.8 °F 11.5 °F 19.4 °F 80% 29.87 in 10.0 mi NNW 17.3 mph - N/A   Clear